When you browse on this site, cookies collect data to enhance your experience and personalize the content and advertising you see.
Visit our Privacy Policy to learn more. By continuing to use the site, you agree to this use of cookies and data.
  • In Lithuania
  • List of Countries
  • For 7 days
  • Water Temperature
  • Weather Map
  • Weather Widgets
  • user-avatar
    Login

    Hourly Weather Klagenfurt

    Today, 18 August, Sunday

    Time Temperature Precipitation Wind Pressure Humidity
    00:00 +14°C° 0 mm 1 mps 690 mmHg 88%
    01:00 +14°C° 0 mm 1 mps 690 mmHg 90%
    02:00 +14°C° 0 mm 1 mps 690 mmHg 90%
    03:00 +14°C° 0 mm 1 mps 690 mmHg 90%
    04:00 +14°C° 0 mm 1 mps 690 mmHg 90%
    05:00 +15°C° 0 mm 1 mps 690 mmHg 86%
    06:00 +15°C° 0 mm 0 mps 690 mmHg 83%
    07:00 +16°C° 0 mm 0 mps 690 mmHg 79%
    08:00 +19°C° 0 mm 0 mps 691 mmHg 71%
    09:00 +23°C° 0 mm 1 mps 691 mmHg 64%
    10:00 +25°C° 0 mm 1 mps 692 mmHg 56%
    11:00 +26°C° 0 mm 1 mps 692 mmHg 54%
    12:00 +27°C° 0 mm 1 mps 692 mmHg 51%
    13:00 +28°C° 0 mm 2 mps 692 mmHg 49%
    14:00 +27°C° 0 mm 2 mps 692 mmHg 51%
    15:00 +27°C° 0 mm 2 mps 691 mmHg 53%
    16:00 +26°C° 0 mm 2 mps 691 mmHg 55%
    17:00 +24°C° 0 mm 2 mps 691 mmHg 65%
    18:00 +22°C° 0 mm 1 mps 690 mmHg 75%
    19:00 +20°C° 0 mm 1 mps 690 mmHg 85%
    20:00 +19°C° 0 mm 1 mps 690 mmHg 87%
    21:00 +18°C° 0 mm 1 mps 690 mmHg 89%
    22:00 +16°C° 0 mm 1 mps 690 mmHg 91%
    23:00 +16°C° 0 mm 1 mps 690 mmHg 91%

    Tomorrow, 19 August, Monday

    Time Temperature Precipitation Wind Pressure Humidity
    00:00 +15°C° 0 mm 1 mps 690 mmHg 92%
    01:00 +15°C° 0 mm 1 mps 690 mmHg 92%
    02:00 +15°C° 0 mm 1 mps 690 mmHg 92%
    03:00 +15°C° 0 mm 1 mps 690 mmHg 92%
    04:00 +14°C° 0 mm 1 mps 690 mmHg 92%
    05:00 +16°C° 0 mm 1 mps 690 mmHg 88%
    06:00 +16°C° 0 mm 0 mps 691 mmHg 84%
    07:00 +17°C° 0 mm 0 mps 691 mmHg 80%
    08:00 +19°C° 0 mm 0 mps 692 mmHg 72%
    09:00 +22°C° 0 mm 0 mps 693 mmHg 65%
    10:00 +26°C° 0 mm 1 mps 693 mmHg 57%
    11:00 +27°C° 0.1 mm 1 mps 694 mmHg 56%
    12:00 +27°C° 0.1 mm 1 mps 694 mmHg 55%
    13:00 +27°C° 0.1 mm 1 mps 694 mmHg 53%
    14:00 +27°C° 0.4 mm 1 mps 694 mmHg 58%
    15:00 +26°C° 0.4 mm 1 mps 693 mmHg 62%
    16:00 +26°C° 0.4 mm 1 mps 693 mmHg 67%
    17:00 +24°C° 0.3 mm 1 mps 693 mmHg 74%
    18:00 +22°C° 0.3 mm 1 mps 693 mmHg 80%
    19:00 +20°C° 0.3 mm 1 mps 693 mmHg 87%
    20:00 +20°C° 0 mm 1 mps 693 mmHg 88%
    21:00 +17°C° 0 mm 0 mps 693 mmHg 89%
    22:00 +17°C° 0 mm 0 mps 693 mmHg 90%
    23:00 +16°C° 0 mm 0 mps 693 mmHg 90%

    Day after tomorrow, 20 August, Tuesday

    Time Temperature Precipitation Wind Pressure Humidity
    00:00 +16°C° 0 mm 0 mps 693 mmHg 90%
    01:00 +16°C° 0 mm 0 mps 693 mmHg 90%
    02:00 +15°C° 0 mm 0 mps 693 mmHg 91%
    03:00 +15°C° 0 mm 0 mps 693 mmHg 91%
    04:00 +15°C° 0 mm 0 mps 692 mmHg 91%
    05:00 +16°C° 0 mm 0 mps 693 mmHg 90%
    06:00 +17°C° 0 mm 0 mps 693 mmHg 88%
    07:00 +18°C° 0 mm 0 mps 693 mmHg 86%
    08:00 +20°C° 0 mm 0 mps 694 mmHg 78%
    09:00 +24°C° 0 mm 1 mps 694 mmHg 69%
    10:00 +26°C° 0 mm 1 mps 694 mmHg 60%
    11:00 +27°C° 0 mm 1 mps 694 mmHg 56%
    12:00 +28°C° 0 mm 1 mps 694 mmHg 51%
    13:00 +29°C° 0 mm 1 mps 694 mmHg 47%
    14:00 +29°C° 0 mm 1 mps 694 mmHg 48%
    15:00 +29°C° 0 mm 1 mps 694 mmHg 49%
    16:00 +28°C° 0 mm 1 mps 693 mmHg 49%
    17:00 +26°C° 0 mm 1 mps 693 mmHg 59%
    18:00 +24°C° 0 mm 1 mps 693 mmHg 68%
    19:00 +22°C° 0 mm 1 mps 692 mmHg 78%
    20:00 +21°C° 0 mm 1 mps 692 mmHg 78%
    21:00 +20°C° 0 mm 1 mps 693 mmHg 78%
    22:00 +20°C° 0 mm 1 mps 693 mmHg 79%
    23:00 +19°C° 0 mm 1 mps 693 mmHg 79%

    21 August, Wednesday

    Time Temperature Precipitation Wind Pressure Humidity
    00:00 +19°C° 0 mm 1 mps 693 mmHg 80%
    01:00 +18°C° 0 mm 1 mps 692 mmHg 80%
    02:00 +18°C° 0 mm 1 mps 692 mmHg 80%
    03:00 +18°C° 0 mm 1 mps 693 mmHg 80%
    04:00 +18°C° 0 mm 1 mps 693 mmHg 80%
    05:00 +19°C° 0 mm 1 mps 693 mmHg 79%
    06:00 +19°C° 0 mm 1 mps 693 mmHg 78%
    07:00 +20°C° 0 mm 1 mps 694 mmHg 78%
    08:00 +21°C° 0.3 mm 1 mps 694 mmHg 79%
    09:00 +21°C° 0.3 mm 1 mps 695 mmHg 80%
    10:00 +22°C° 0.3 mm 1 mps 695 mmHg 81%
    11:00 +23°C° 0.8 mm 1 mps 695 mmHg 79%
    12:00 +24°C° 0.8 mm 1 mps 695 mmHg 76%
    13:00 +25°C° 0.8 mm 2 mps 695 mmHg 74%
    14:00 +24°C° 1.5 mm 1 mps 695 mmHg 77%
    15:00 +24°C° 1.5 mm 1 mps 695 mmHg 81%
    16:00 +23°C° 1.5 mm 1 mps 695 mmHg 84%
    17:00 +22°C° 0.9 mm 1 mps 695 mmHg 87%
    18:00 +21°C° 0.9 mm 1 mps 695 mmHg 90%
    19:00 +19°C° 0.9 mm 1 mps 695 mmHg 93%
    20:00 +19°C° 0.4 mm 1 mps 695 mmHg 94%
    21:00 +18°C° 0.4 mm 1 mps 695 mmHg 95%
    22:00 +16°C° 0.4 mm 1 mps 695 mmHg 96%
    23:00 +15°C° 0.1 mm 0 mps 695 mmHg 96%

    22 August, Thursday

    Time Temperature Precipitation Wind Pressure Humidity
    00:00 +15°C° 0.1 mm 0 mps 694 mmHg 96%
    01:00 +15°C° 0.1 mm 0 mps 694 mmHg 97%
    02:00 +15°C° 0 mm 0 mps 694 mmHg 97%
    03:00 +15°C° 0 mm 0 mps 694 mmHg 97%
    04:00 +15°C° 0 mm 1 mps 694 mmHg 97%
    05:00 +16°C° 0 mm 1 mps 694 mmHg 97%
    06:00 +16°C° 0 mm 1 mps 694 mmHg 96%
    07:00 +15°C° 0 mm 0 mps 694 mmHg 95%
    08:00 +19°C° 0 mm 1 mps 694 mmHg 89%
    09:00 +20°C° 0 mm 1 mps 694 mmHg 84%
    10:00 +21°C° 0 mm 1 mps 695 mmHg 78%
    11:00 +22°C° 0 mm 1 mps 695 mmHg 74%
    12:00 +23°C° 0 mm 1 mps 694 mmHg 70%
    13:00 +24°C° 0 mm 1 mps 694 mmHg 65%
    14:00 +24°C° 0.1 mm 1 mps 694 mmHg 66%
    15:00 +24°C° 0.1 mm 1 mps 694 mmHg 66%
    16:00 +24°C° 0.1 mm 1 mps 694 mmHg 67%
    17:00 +22°C° 0.2 mm 1 mps 694 mmHg 74%
    18:00 +21°C° 0.2 mm 1 mps 693 mmHg 81%
    19:00 +19°C° 0.2 mm 1 mps 693 mmHg 89%
    20:00 +18°C° 0.2 mm 1 mps 693 mmHg 91%
    21:00 +18°C° 0.2 mm 1 mps 694 mmHg 93%
    22:00 +15°C° 0.2 mm 0 mps 694 mmHg 95%
    23:00 +15°C° 0.2 mm 0 mps 694 mmHg 95%

    23 August, Friday

    Time Temperature Precipitation Wind Pressure Humidity
    00:00 +15°C° 0.2 mm 1 mps 694 mmHg 95%
    01:00 +15°C° 0.2 mm 1 mps 693 mmHg 95%
    02:00 +15°C° 0 mm 1 mps 693 mmHg 95%
    03:00 +15°C° 0 mm 1 mps 693 mmHg 96%
    04:00 +15°C° 0 mm 1 mps 693 mmHg 96%
    05:00 +15°C° 0.2 mm 1 mps 693 mmHg 95%
    06:00 +16°C° 0.2 mm 1 mps 694 mmHg 93%
    07:00 +18°C° 0.2 mm 1 mps 694 mmHg 92%
    08:00 +19°C° 0.2 mm 1 mps 694 mmHg 87%
    09:00 +20°C° 0.2 mm 1 mps 695 mmHg 81%
    10:00 +22°C° 0.2 mm 1 mps 695 mmHg 76%
    11:00 +23°C° 0.1 mm 2 mps 695 mmHg 72%
    12:00 +23°C° 0.1 mm 2 mps 695 mmHg 68%
    13:00 +24°C° 0.1 mm 2 mps 695 mmHg 64%
    14:00 +24°C° 0.2 mm 2 mps 695 mmHg 66%
    15:00 +24°C° 0.2 mm 2 mps 695 mmHg 68%
    16:00 +24°C° 0.2 mm 1 mps 694 mmHg 69%
    17:00 +22°C° 0.2 mm 1 mps 694 mmHg 77%
    18:00 +21°C° 0.2 mm 1 mps 694 mmHg 84%
    19:00 +19°C° 0.2 mm 1 mps 693 mmHg 91%
    20:00 +19°C° 0.4 mm 1 mps 694 mmHg 92%
    21:00 +18°C° 0.4 mm 1 mps 694 mmHg 93%
    22:00 +16°C° 0.4 mm 1 mps 694 mmHg 94%
    23:00 +16°C° 0.2 mm 1 mps 694 mmHg 94%
    Show more